| time (UTC) | temp F | wind direction | speed knots | gust knots | rain 1hr in | rain 24hr in | rain mn in | humidity % | barometer mb |
| 20260505224235 | 49 | 0.0 | 0.0 | 0.00 | 0.37 | 0.00 | 88 | 1007.5 | |
| 20260505223215 | 49 | 335 | 0.9 | 4.3 | 0.00 | 0.37 | 0.00 | 88 | 1007.5 |
| 20260505222215 | 49 | 0.0 | 2.6 | 0.00 | 0.38 | 0.00 | 88 | 1007.5 | |
| 20260505221235 | 49 | 336 | 0.0 | 0.9 | 0.00 | 0.37 | 0.00 | 88 | 1007.6 |
| 20260505220215 | 49 | 0.0 | 0.0 | 0.00 | 0.38 | 0.00 | 88 | 1007.7 | |
| 20260505215215 | 49 | 0.0 | 0.0 | 0.00 | 0.38 | 0.38 | 88 | 1007.7 | |
| 20260505214255 | 50 | 0.0 | 0.0 | 0.00 | 0.39 | 0.38 | 88 | 1007.7 | |
| 20260505213215 | 50 | 0.0 | 0.0 | 0.00 | 0.40 | 0.38 | 88 | 1007.7 | |
| 20260505212235 | 50 | 0.0 | 0.0 | 0.00 | 0.40 | 0.38 | 87 | 1007.8 | |
| 20260505211235 | 50 | 0.0 | 2.6 | 0.00 | 0.40 | 0.38 | 87 | 1007.9 | |
| 20260505210215 | 50 | 0.0 | 0.0 | 0.00 | 0.40 | 0.38 | 87 | 1007.9 | |
| 20260505205215 | 50 | 0.0 | 0.9 | 0.00 | 0.40 | 0.38 | 87 | 1008.0 | |
| 20260505204215 | 50 | 0.0 | 0.0 | 0.00 | 0.40 | 0.38 | 87 | 1008.0 | |
| 20260505203215 | 50 | 0.0 | 0.0 | 0.00 | 0.40 | 0.38 | 87 | 1008.0 | |
| 20260505202215 | 50 | 279 | 0.0 | 0.9 | 0.00 | 0.40 | 0.38 | 87 | 1008.0 |
| 20260505201215 | 50 | 0.0 | 0.0 | 0.00 | 0.40 | 0.38 | 87 | 1008.0 | |
| 20260505200215 | 50 | 0.0 | 0.0 | 0.00 | 0.40 | 0.38 | 87 | 1007.9 | |
| 20260505195215 | 50 | 0.0 | 0.0 | 0.00 | 0.40 | 0.38 | 87 | 1007.9 | |
| 20260505194215 | 50 | 0.0 | 0.9 | 0.00 | 0.40 | 0.38 | 87 | 1007.8 | |
| 20260505193215 | 50 | 0.0 | 0.0 | 0.00 | 0.40 | 0.38 | 87 | 1007.7 | |
| 20260505192235 | 50 | 0.0 | 0.0 | 0.00 | 0.41 | 0.38 | 87 | 1007.6 | |
| 20260505191215 | 50 | 0.0 | 0.0 | 0.00 | 0.41 | 0.38 | 87 | 1007.6 | |
| 20260505190215 | 50 | 0.0 | 0.0 | 0.00 | 0.42 | 0.38 | 87 | 1007.5 | |
| 20260505185215 | 50 | 333 | 0.0 | 0.9 | 0.00 | 0.42 | 0.38 | 87 | 1007.5 |
| 20260505184215 | 51 | 0.0 | 0.0 | 0.00 | 0.42 | 0.38 | 87 | 1007.5 | |
| 20260505183215 | 51 | 0.0 | 0.9 | 0.00 | 0.42 | 0.38 | 87 | 1007.5 | |
| 20260505182217 | 51 | 0.0 | 0.0 | 0.00 | 0.42 | 0.38 | 87 | 1007.4 | |
| 20260505181217 | 51 | 0.0 | 0.0 | 0.00 | 0.42 | 0.38 | 87 | 1007.5 | |
| 20260505180217 | 51 | 0.0 | 0.0 | 0.00 | 0.42 | 0.38 | 87 | 1007.6 | |
| 20260505175217 | 51 | 0.0 | 0.0 | 0.00 | 0.42 | 0.38 | 87 | 1007.6 | |
| 20260505174217 | 51 | 0.0 | 0.0 | 0.00 | 0.42 | 0.38 | 87 | 1007.5 | |
| 20260505173237 | 51 | 0.0 | 0.0 | 0.00 | 0.42 | 0.38 | 87 | 1007.5 | |
| 20260505172217 | 51 | 0.0 | 0.0 | 0.00 | 0.42 | 0.38 | 87 | 1007.5 | |
| 20260505171237 | 51 | 0.0 | 0.9 | 0.00 | 0.42 | 0.38 | 87 | 1007.5 | |
| 20260505170217 | 51 | 0.0 | 0.0 | 0.00 | 0.42 | 0.38 | 87 | 1007.6 | |
| 20260505165237 | 51 | 0.0 | 1.7 | 0.00 | 0.42 | 0.38 | 87 | 1007.6 | |
| 20260505164237 | 51 | 323 | 0.0 | 2.6 | 0.00 | 0.42 | 0.38 | 87 | 1007.6 |
| 20260505163215 | 51 | 334 | 0.0 | 4.3 | 0.00 | 0.42 | 0.38 | 87 | 1007.6 |
| 20260505162217 | 51 | 0.0 | 0.0 | 0.00 | 0.42 | 0.38 | 87 | 1007.8 | |
| 20260505161217 | 52 | 315 | 0.0 | 0.9 | 0.00 | 0.42 | 0.38 | 86 | 1007.8 |
| 20260505160217 | 52 | 0.0 | 0.9 | 0.00 | 0.42 | 0.38 | 87 | 1007.8 | |
| 20260505153217 | 52 | 0.0 | 0.0 | 0.00 | 0.42 | 0.38 | 87 | 1008.0 | |
| 20260505152216 | 52 | 0.0 | 0.9 | 0.00 | 0.42 | 0.38 | 87 | 1008.1 | |
| 20260505151237 | 52 | 0.0 | 0.0 | 0.00 | 0.42 | 0.38 | 87 | 1008.1 | |
| 20260505150216 | 52 | 335 | 0.9 | 3.5 | 0.00 | 0.42 | 0.38 | 87 | 1008.1 |
| 20260505140237 | 52 | 0.0 | 0.0 | 0.00 | 0.42 | 0.38 | 87 | 1008.4 | |
| 20260505130217 | 51 | 0.0 | 0.9 | 0.00 | 0.42 | 0.38 | 87 | 1008.9 | |
| 20260505124236 | 52 | 336 | 0.0 | 4.3 | 0.00 | 0.42 | 0.38 | 87 | 1008.9 |
| 20260505123217 | 52 | 0.0 | 0.9 | 0.00 | 0.42 | 0.38 | 87 | 1009.0 | |
| 20260505122217 | 52 | 0.0 | 0.0 | 0.00 | 0.42 | 0.38 | 88 | 1009.0 | |
| 20260505121216 | 52 | 356 | 0.0 | 6.1 | 0.00 | 0.42 | 0.38 | 87 | 1009.0 |
| 20260505120237 | 52 | 313 | 0.0 | 5.2 | 0.00 | 0.42 | 0.38 | 88 | 1009.0 |
| 20260505115236 | 52 | 308 | 0.0 | 3.5 | 0.00 | 0.41 | 0.37 | 89 | 1009.0 |
| 20260505114236 | 51 | 0.0 | 0.0 | 0.00 | 0.41 | 0.37 | 88 | 1009.1 | |
| 20260505113236 | 51 | 0.0 | 0.0 | 0.00 | 0.41 | 0.37 | 88 | 1009.1 | |
| 20260505112216 | 51 | 0.0 | 0.0 | 0.00 | 0.41 | 0.37 | 89 | 1009.1 | |
| 20260505111216 | 51 | 0.0 | 0.0 | 0.00 | 0.41 | 0.37 | 89 | 1009.2 | |
| 20260505110216 | 51 | 0.0 | 0.0 | 0.00 | 0.41 | 0.37 | 89 | 1009.3 | |
| 20260505102216 | 51 | 0.0 | 0.0 | 0.00 | 0.41 | 0.37 | 89 | 1009.3 | |
| 20260505101216 | 50 | 0.0 | 2.6 | 0.00 | 0.41 | 0.37 | 89 | 1009.3 | |
| 20260505100216 | 50 | 0.0 | 0.0 | 0.00 | 0.41 | 0.37 | 89 | 1009.4 | |
| 20260505095216 | 50 | 0.0 | 0.0 | 0.00 | 0.41 | 0.37 | 89 | 1009.5 | |
| 20260505094216 | 50 | 0.0 | 0.0 | 0.00 | 0.41 | 0.37 | 89 | 1009.5 | |
| 20260505093216 | 50 | 346 | 0.9 | 5.2 | 0.00 | 0.41 | 0.37 | 89 | 1009.5 |
| 20260505092216 | 50 | 0.0 | 0.0 | 0.00 | 0.41 | 0.37 | 89 | 1009.5 | |
| 20260505091216 | 50 | 308 | 0.0 | 0.9 | 0.00 | 0.41 | 0.37 | 89 | 1009.5 |
| 20260505090216 | 50 | 324 | 0.0 | 6.1 | 0.00 | 0.41 | 0.37 | 89 | 1009.5 |
| 20260505085216 | 50 | 335 | 0.0 | 6.1 | 0.00 | 0.41 | 0.37 | 90 | 1009.5 |
| 20260505084216 | 50 | 0.0 | 0.0 | 0.00 | 0.41 | 0.37 | 90 | 1009.5 | |
| 20260505083217 | 50 | 0.0 | 0.0 | 0.00 | 0.41 | 0.37 | 90 | 1009.5 | |
| 20260505082216 | 51 | 319 | 0.0 | 0.9 | 0.00 | 0.41 | 0.37 | 90 | 1009.5 |
| 20260505081216 | 51 | 46 | 0.0 | 0.9 | 0.00 | 0.41 | 0.37 | 90 | 1009.4 |
| 20260505080216 | 51 | 0.0 | 0.0 | 0.00 | 0.41 | 0.37 | 90 | 1009.4 | |
| 20260505075216 | 51 | 329 | 1.7 | 6.1 | 0.00 | 0.41 | 0.37 | 90 | 1009.4 |
| 20260505074236 | 51 | 0.0 | 0.9 | 0.00 | 0.41 | 0.37 | 90 | 1009.3 | |
| 20260505073216 | 51 | 326 | 0.9 | 5.2 | 0.00 | 0.41 | 0.37 | 90 | 1009.3 |
| 20260505072216 | 51 | 333 | 0.9 | 5.2 | 0.00 | 0.41 | 0.37 | 90 | 1009.3 |
| 20260505071216 | 51 | 324 | 2.6 | 6.1 | 0.00 | 0.41 | 0.37 | 90 | 1009.3 |
| 20260505070236 | 51 | 355 | 0.0 | 1.7 | 0.00 | 0.41 | 0.37 | 90 | 1009.3 |
| 20260505065216 | 51 | 355 | 0.9 | 1.7 | 0.00 | 0.41 | 0.37 | 90 | 1009.3 |
| 20260505064216 | 51 | 47 | 1.7 | 2.6 | 0.00 | 0.41 | 0.37 | 90 | 1009.4 |
| 20260505063216 | 51 | 333 | 0.9 | 3.5 | 0.00 | 0.41 | 0.37 | 90 | 1009.4 |
| 20260505062256 | 51 | 0.0 | 0.0 | 0.00 | 0.41 | 0.37 | 90 | 1009.5 | |
| 20260505061216 | 52 | 0.0 | 0.0 | 0.00 | 0.41 | 0.37 | 90 | 1009.5 | |
| 20260505060216 | 52 | 326 | 0.0 | 5.2 | 0.00 | 0.41 | 0.37 | 90 | 1009.5 |
| 20260505055216 | 52 | 0.0 | 0.0 | 0.00 | 0.41 | 0.37 | 90 | 1009.5 | |
| 20260505054216 | 52 | 0.0 | 0.9 | 0.00 | 0.41 | 0.37 | 90 | 1009.4 | |
| 20260505053216 | 52 | 0.0 | 0.0 | 0.00 | 0.41 | 0.37 | 90 | 1009.4 | |
| 20260505052216 | 52 | 24 | 0.9 | 2.6 | 0.00 | 0.41 | 0.37 | 90 | 1009.4 |
| 20260505051216 | 53 | 24 | 0.0 | 1.7 | 0.00 | 0.41 | 0.37 | 90 | 1009.3 |
| 20260505050218 | 53 | 0.0 | 0.9 | 0.00 | 0.40 | 0.37 | 90 | 1009.2 | |
| 20260505041216 | 53 | 331 | 0.0 | 1.7 | 0.00 | 0.40 | 0.37 | 90 | 1009.2 |
| 20260505040216 | 53 | 0.0 | 0.0 | 0.00 | 0.40 | 0.37 | 90 | 1009.2 | |
| 20260505035215 | 54 | 326 | 0.9 | 4.3 | 0.00 | 0.40 | 0.37 | 90 | 1009.1 |
| 20260505034216 | 54 | 5 | 0.0 | 1.7 | 0.00 | 0.40 | 0.37 | 90 | 1009.2 |
| 20260505033215 | 54 | 340 | 0.0 | 2.6 | 0.00 | 0.40 | 0.37 | 90 | 1009.1 |
| 20260505032236 | 55 | 323 | 1.7 | 6.1 | 0.01 | 0.40 | 0.37 | 90 | 1009.2 |
| 20260505031235 | 55 | 331 | 1.7 | 5.2 | 0.02 | 0.40 | 0.37 | 90 | 1009.2 |
| 20260505030236 | 55 | 306 | 0.9 | 2.6 | 0.05 | 0.40 | 0.37 | 90 | 1009.2 |
| 20260505025216 | 56 | 0.0 | 0.0 | 0.10 | 0.40 | 0.37 | 90 | 1009.3 | |
| 20260505024236 | 56 | 0.0 | 0.0 | 0.14 | 0.40 | 0.36 | 90 | 1009.4 | |
| 20260505023216 | 56 | 0.0 | 0.0 | 0.18 | 0.40 | 0.36 | 90 | 1009.4 | |
| 20260505022216 | 56 | 0.0 | 0.0 | 0.24 | 0.39 | 0.35 | 90 | 1009.3 | |
| 20260505021216 | 56 | 0.0 | 0.0 | 0.26 | 0.38 | 0.34 | 90 | 1009.3 | |
| 20260505020215 | 56 | 0.0 | 0.0 | 0.25 | 0.35 | 0.31 | 90 | 1009.3 | |
| 20260505015216 | 56 | 0.0 | 0.0 | 0.21 | 0.30 | 0.26 | 89 | 1009.3 | |
| 20260505014236 | 56 | 0.0 | 0.0 | 0.16 | 0.26 | 0.22 | 89 | 1009.3 | |
| 20260505013216 | 56 | 0.0 | 0.0 | 0.13 | 0.22 | 0.18 | 89 | 1009.5 | |
| 20260505012215 | 56 | 0.0 | 0.0 | 0.07 | 0.15 | 0.11 | 89 | 1009.6 | |
| 20260505011216 | 56 | 0.0 | 0.0 | 0.05 | 0.12 | 0.07 | 89 | 1009.6 | |
| 20260505010215 | 56 | 0.0 | 0.0 | 0.03 | 0.11 | 0.06 | 89 | 1009.6 | |
| 20260505005215 | 56 | 0.0 | 0.0 | 0.03 | 0.10 | 0.05 | 89 | 1009.7 | |
| 20260505004255 | 56 | 0.0 | 0.0 | 0.03 | 0.10 | 0.05 | 89 | 1009.8 | |
| 20260505003216 | 56 | 0.0 | 0.0 | 0.03 | 0.09 | 0.04 | 89 | 1009.8 | |
| 20260505002215 | 56 | 0.0 | 0.0 | 0.01 | 0.07 | 0.03 | 89 | 1010.0 | |
| 20260505001215 | 56 | 0.0 | 0.0 | 0.00 | 0.07 | 0.02 | 89 | 1010.1 | |
| 20260505000215 | 56 | 0.0 | 0.0 | 0.00 | 0.07 | 0.02 | 89 | 1010.1 | |
| 20260504235215 | 56 | 0.0 | 0.0 | 0.00 | 0.07 | 0.02 | 89 | 1010.2 | |
| 20260504234215 | 56 | 0.0 | 0.0 | 0.00 | 0.07 | 0.02 | 89 | 1010.1 | |
| 20260504233215 | 56 | 0.0 | 0.0 | 0.00 | 0.06 | 0.01 | 89 | 1010.3 | |
| 20260504232215 | 56 | 0.0 | 0.0 | 0.00 | 0.06 | 0.01 | 89 | 1010.3 | |
| 20260504231215 | 56 | 0.0 | 0.0 | 0.00 | 0.06 | 0.01 | 89 | 1010.5 | |
| 20260504230215 | 56 | 0.0 | 0.0 | 0.01 | 0.06 | 0.01 | 89 | 1010.6 | |
| 20260504225215 | 56 | 0.0 | 0.0 | 0.01 | 0.06 | 0.01 | 89 | 1010.7 |